Temp
60 60 59 59 59 59 59 59 59 59 59 60 60 60 60 60 59 52 50 64 64 68 70 70 70 69 68 63 67 63 49 44 52 58 63 67 64 73 78 75 78 78 77 80 80
59 59 59 59 59 59 59 59 59 59 59 59 59 59 59 59 49 47 61 68 69 70 65 66 66 67 60 62 64 58 47 52 62 68 65 67 62 67 71 69 72 76 80 84 83
58 59 59 59 59 59 58 59 59 59 59 59 59 59 59 56 46 53 71 70 70 71 66 66 67 67 58 59 60 58 54 64 66 69 70 68 67 71 67 65 70 70 74 77 77
58 58 58 58 58 58 58 58 58 59 59 59 59 59 59 49 44 59 70 69 70 70 64 63 61 58 54 55 60 53 62 67 68 71 69 68 70 67 69 71 75 77 77 76 76
57 58 58 58 58 58 57 57 58 58 58 58 58 58 52 41 45 60 68 65 66 65 61 59 58 58 52 56 62 58 59 65 69 70 70 71 67 67 69 74 78 78 77 75 74
57 57 57 57 57 57 57 57 57 57 57 58 58 57 46 35 57 61 61 60 60 56 59 60 60 62 58 57 61 59 62 64 66 65 67 65 67 67 70 76 76 77 76 75 74
57 56 56 57 57 57 57 57 56 57 58 60 59 58 48 43 58 59 58 53 55 57 55 60 63 59 58 52 61 59 54 56 61 63 63 68 62 64 72 75 74 75 77 76 74
57 56 56 56 57 57 57 57 56 57 60 60 60 52 42 57 57 55 56 55 59 56 56 61 62 56 55 56 56 54 52 49 62 61 65 67 55 68 73 72 72 74 76 76 72
56 56 56 56 56 56 56 55 57 61 60 60 50 46 40 61 55 60 58 57 60 59 57 66 58 54 54 48 43 46 47 46 54 63 64 63 57 66 72 72 69 69 70 71 70
56 55 55 55 56 56 55 56 59 58 58 59 56 43 49 54 62 64 63 62 56 56 54 53 51 46 43 43 38 40 43 49 48 57 60 57 58 65 67 69 65 65 68 69 71
56 55 55 55 55 55 51 50 47 45 47 45 48 49 53 59 64 59 64 59 57 50 41 48 42 40 47 51 52 49 48 44 51 58 58 57 58 61 63 64 66 68 70 72 73
55 55 55 55 55 54 47 46 49 48 38 51 51 51 56 58 50 58 61 50 49 41 46 43 39 48 50 50 49 46 43 41 49 56 52 52 50 55 58 60 62 65 67 67 68
54 54 54 54 53 49 44 50 53 49 36 45 51 52 54 56 51 53 57 51 46 42 41 37 45 53 51 47 45 44 43 43 44 51 53 49 49 52 58 60 63 65 65 65 67
54 54 54 54 49 43 46 53 50 49 29 41 49 54 57 56 50 60 59 52 46 41 42 40 48 48 44 45 46 39 49 50 48 44 37 49 38 49 56 57 60 64 66 67 63
54 54 54 54 43 43 50 49 48 47 21 47 49 61 58 50 54 55 61 51 43 44 45 40 41 43 43 45 49 43 51 47 47 42 39 41 36 44 50 51 57 62 65 67 65
54 54 54 47 47 46 49 47 47 31 21 40 47 46 45 49 52 53 51 56 54 45 45 43 49 47 46 51 51 52 46 43 42 38 29 39 39 43 49 54 58 61 63 62 62
53 53 51 50 46 47 46 44 28 22 42 37 39 44 42 43 46 49 47 44 39 32 31 40 43 47 52 43 46 43 35 26 25 25 29 43 39 46 51 55 56 58 59 60 61
52 50 49 50 46 47 44 34 22 35 35 44 43 42 37 42 43 43 44 39 43 39 34 32 29 43 50 45 40 38 36 27 24 24 30 43 35 44 56 63 65 65 61 60 60
50 43 44 48 50 46 39 23 28 35 41 39 40 34 35 40 38 38 39 40 40 40 32 31 34 47 50 49 48 40 33 40 33 33 29 34 41 52 58 60 60 58 59 59 60
40 41 45 50 49 45 33 32 34 42 44 42 32 36 30 34 33 33 35 42 41 46 42 38 33 45 49 50 48 43 47 34 29 26 25 32 36 40 48 52 60 57 56 58 60
39 41 49 50 49 38 25 30 37 46 45 40 36 34 35 33 32 32 36 41 44 43 44 39 34 36 42 39 39 38 35 37 34 31 27 27 33 46 51 53 53 54 56 57 57
36 36 49 49 35 26 26 36 43 43 46 43 40 38 35 36 33 34 35 40 44 44 36 38 32 28 34 42 45 40 36 36 30 31 35 30 32 50 51 52 52 53 59 61 56
40 39 47 46 25 24 33 38 41 41 40 41 39 41 40 35 31 35 38 46 46 42 37 38 30 24 30 35 40 35 39 38 35 33 29 31 34 53 54 56 55 54 59 59 56
39 32 36 36 34 30 34 34 35 44 41 42 40 41 38 33 36 33 36 44 45 44 50 43 32 28 23 30 35 32 37 39 34 28 33 36 40 49 53 54 53 56 58 56 57
34 30 39 26 29 30 35 37 35 37 42 40 37 39 36 31 34 33 37 39 43 46 40 38 31 34 34 36 37 36 35 37 34 37 32 38 40 45 48 51 54 56 58 59 57
31 33 35 31 33 37 37 36 36 39 37 36 35 38 38 33 34 32 36 37 34 38 37 37 31 31 31 37 37 34 37 38 38 38 38 39 38 49 53 56 55 57 58 59 60
43 43 37 34 30 28 30 37 38 39 40 42 41 38 36 39 43 43 43 41 40 37 36 35 33 31 25 35 35 27 35 37 39 41 40 34 42 49 50 52 54 56 58 59 60
MSLP
1020.48 1020.13 1019.78 1019.49 1019.11 1018.76 1018.38 1018.01 1017.69 1017.43 1017.15 1016.83 1016.54 1016.25 1015.73 1015.29 1014.46 1013.92 1012.93 1011.08 1010.62 1010.12 1010.07 1010.10 1010.08 1010.03 1010.08 1010.26 1010.12 1010.50 1011.06 1010.73 1009.18 1008.43 1007.16 1006.28 1005.69 1004.58 1004.13 1003.78 1003.34 1002.95 1002.75 1002.61 1002.69
1020.69 1020.31 1019.92 1019.57 1019.20 1018.79 1018.36 1017.99 1017.67 1017.34 1016.98 1016.66 1016.33 1016.11 1015.72 1015.14 1014.59 1013.32 1011.46 1010.96 1010.50 1010.32 1010.32 1010.25 1009.80 1010.03 1010.15 1010.14 1010.05 1010.01 1010.01 1008.93 1008.16 1007.41 1006.65 1006.32 1005.88 1005.45 1004.80 1004.52 1003.94 1003.21 1002.66 1002.65 1002.77
1020.88 1020.42 1020.02 1019.67 1019.29 1018.90 1018.46 1017.93 1017.41 1016.93 1016.60 1016.41 1016.28 1016.08 1015.63 1015.01 1014.25 1011.45 1010.16 1010.38 1010.30 1009.77 1010.06 1010.32 1010.07 1009.81 1010.06 1009.65 1009.40 1009.03 1008.18 1007.58 1006.93 1006.81 1006.49 1005.86 1005.45 1005.31 1005.13 1004.54 1003.70 1003.46 1003.45 1003.41 1003.21
1020.85 1020.39 1019.98 1019.63 1019.20 1018.71 1018.26 1017.79 1017.31 1016.84 1016.39 1016.18 1016.10 1015.96 1015.60 1015.20 1013.59 1010.45 1010.34 1010.24 1009.99 1009.36 1010.12 1010.11 1010.11 1009.65 1009.39 1008.91 1008.55 1008.23 1007.24 1006.88 1006.29 1006.54 1006.52 1005.81 1005.44 1004.97 1004.99 1004.21 1003.87 1003.67 1003.50 1003.06 1003.25
1020.72 1020.25 1019.82 1019.39 1018.87 1018.27 1017.74 1017.24 1016.80 1016.52 1016.22 1016.05 1016.04 1016.05 1015.84 1015.66 1013.06 1010.58 1010.41 1010.55 1010.21 1010.04 1009.95 1010.03 1009.82 1009.28 1008.45 1008.07 1008.26 1007.94 1006.93 1006.52 1006.26 1006.20 1005.94 1005.87 1005.13 1004.67 1004.18 1004.04 1003.39 1003.41 1003.32 1003.14 1003.03
1020.61 1020.11 1019.65 1019.16 1018.65 1018.02 1017.35 1016.70 1016.14 1016.03 1015.74 1015.57 1015.70 1015.99 1016.28 1015.37 1011.22 1010.82 1010.71 1010.48 1010.49 1010.64 1010.29 1009.88 1009.08 1008.73 1008.29 1007.65 1007.46 1006.59 1006.53 1006.43 1006.39 1006.07 1005.94 1005.59 1004.54 1004.79 1002.95 1002.81 1003.28 1002.81 1002.55 1002.50 1002.53
1020.29 1019.82 1019.35 1018.86 1018.29 1017.63 1016.92 1016.18 1015.32 1015.47 1015.01 1014.78 1015.11 1015.53 1015.62 1013.21 1011.12 1010.78 1010.85 1010.81 1010.37 1010.47 1010.21 1009.58 1009.08 1009.00 1007.86 1007.71 1007.10 1006.82 1006.90 1006.41 1005.94 1005.87 1005.83 1005.66 1004.13 1002.61 1003.47 1003.04 1002.64 1002.53 1002.22 1002.14 1002.22
1020.29 1019.78 1019.25 1018.72 1018.16 1017.51 1016.75 1015.94 1015.11 1014.78 1014.32 1014.40 1014.77 1015.31 1014.39 1011.48 1011.06 1010.86 1010.39 1010.11 1009.84 1009.78 1010.00 1009.12 1008.95 1008.76 1008.33 1007.50 1007.30 1007.17 1007.37 1006.82 1004.86 1005.50 1005.55 1005.58 1002.47 1002.28 1002.55 1002.89 1002.33 1001.91 1001.61 1001.75 1001.61
1020.18 1019.75 1019.21 1018.68 1018.09 1017.34 1016.44 1015.43 1014.75 1014.46 1014.20 1014.38 1014.89 1015.26 1013.60 1011.09 1010.85 1009.44 1009.58 1009.63 1009.21 1009.10 1009.15 1008.61 1008.54 1008.19 1008.15 1008.08 1007.95 1007.31 1006.64 1005.83 1005.53 1004.75 1005.20 1005.13 1001.27 1002.30 1002.39 1002.67 1002.24 1002.13 1001.77 1001.63 1001.67
1020.07 1019.50 1018.95 1018.25 1017.49 1016.66 1015.62 1014.27 1013.75 1014.02 1014.31 1014.43 1014.78 1015.56 1012.61 1010.66 1009.49 1008.81 1008.32 1008.58 1009.05 1009.00 1009.11 1008.86 1008.30 1007.73 1007.92 1007.84 1006.42 1006.59 1006.62 1005.76 1005.16 1004.49 1004.80 1004.50 1001.60 1002.76 1002.87 1002.77 1002.21 1002.18 1001.69 1001.35 1001.03
1019.99 1019.34 1018.73 1018.11 1017.35 1016.77 1015.98 1015.10 1015.19 1014.86 1014.81 1014.41 1013.90 1013.52 1011.82 1010.23 1009.47 1008.45 1007.85 1008.03 1008.49 1009.21 1009.36 1008.60 1008.20 1006.74 1005.16 1005.53 1006.31 1006.44 1006.32 1005.88 1005.24 1005.02 1004.63 1004.05 1002.96 1003.06 1003.05 1002.55 1002.25 1001.85 1001.38 1000.87 1000.59
1019.66 1019.10 1018.38 1017.78 1017.26 1016.84 1016.60 1016.49 1016.50 1016.93 1015.58 1013.45 1012.83 1012.39 1011.04 1010.32 1009.30 1007.97 1007.70 1008.25 1008.15 1008.99 1009.22 1008.82 1007.03 1006.84 1006.73 1006.81 1006.80 1006.84 1006.81 1006.52 1006.09 1005.48 1005.03 1004.79 1003.83 1003.74 1003.26 1002.48 1001.99 1001.44 1000.97 1000.82 1000.56
1019.45 1018.90 1018.23 1017.59 1017.02 1016.78 1016.82 1016.26 1016.22 1016.51 1016.42 1013.23 1011.95 1011.06 1009.96 1009.59 1008.81 1007.91 1007.94 1007.91 1008.06 1008.16 1008.77 1008.73 1007.38 1006.74 1006.69 1006.55 1006.80 1006.84 1006.99 1006.91 1006.76 1006.20 1005.51 1005.40 1003.86 1003.27 1002.47 1001.91 1001.32 1000.66 1000.35 1000.16 1000.08
1019.17 1018.45 1017.99 1017.25 1016.89 1017.07 1016.44 1015.76 1015.93 1016.04 1015.76 1013.12 1011.23 1009.94 1009.38 1008.84 1008.42 1008.28 1008.17 1008.12 1007.96 1007.68 1007.98 1008.06 1006.94 1006.67 1006.53 1006.46 1006.65 1006.88 1006.87 1006.96 1007.08 1007.41 1006.84 1005.78 1003.78 1002.93 1002.00 1001.26 1000.80 1000.07 999.59 999.34 999.75
1018.83 1018.10 1017.55 1017.50 1017.27 1016.88 1015.99 1015.59 1015.50 1015.96 1015.30 1012.69 1010.93 1009.81 1009.77 1009.51 1008.61 1008.19 1007.77 1007.86 1007.78 1007.45 1007.41 1007.35 1006.65 1006.37 1006.25 1006.33 1006.40 1006.58 1006.74 1007.30 1007.50 1007.72 1007.51 1006.89 1006.28 1001.38 1001.36 1000.26 999.46 999.00 998.49 998.45 998.80
1018.14 1017.44 1016.97 1017.10 1017.34 1016.16 1015.59 1015.48 1015.71 1016.41 1014.77 1012.89 1011.73 1011.15 1010.62 1009.51 1008.70 1008.40 1008.52 1007.08 1007.29 1007.54 1007.25 1007.02 1006.48 1006.20 1005.82 1005.85 1006.08 1006.23 1006.87 1007.85 1008.34 1008.70 1007.96 1006.83 1006.79 1000.32 1000.64 999.01 998.27 998.18 998.07 998.06 998.15
1017.47 1016.55 1016.56 1016.58 1016.24 1015.67 1015.46 1015.89 1016.58 1016.25 1015.00 1014.00 1012.89 1012.21 1011.50 1010.47 1009.34 1008.86 1008.28 1008.02 1007.93 1007.97 1007.55 1007.00 1006.56 1005.95 1005.80 1006.12 1006.22 1006.51 1007.22 1008.81 1009.73 1009.38 1007.36 1006.18 1006.17 1000.44 999.03 998.23 998.17 998.13 997.91 997.94 997.89
1017.01 1016.41 1016.40 1016.08 1015.69 1015.53 1015.70 1016.37 1016.82 1016.28 1015.37 1014.58 1013.72 1012.75 1012.08 1011.28 1010.32 1009.78 1009.05 1008.84 1008.63 1008.80 1008.21 1007.44 1006.95 1005.94 1005.40 1005.76 1006.16 1006.70 1007.48 1007.84 1008.23 1008.12 1007.08 1006.21 1004.16 999.72 998.74 997.98 997.91 998.02 998.09 997.93 997.84
1016.71 1016.43 1016.39 1015.70 1015.49 1015.60 1016.30 1016.95 1017.16 1016.54 1015.80 1015.00 1014.06 1013.28 1012.76 1012.16 1011.90 1010.81 1010.16 1009.84 1010.08 1009.88 1009.50 1008.53 1007.25 1006.31 1005.59 1005.35 1005.79 1006.48 1007.15 1007.29 1007.93 1007.78 1007.28 1005.08 1002.23 999.98 998.82 998.05 997.69 998.13 998.20 998.01 997.59
1017.89 1017.34 1016.52 1015.73 1015.59 1016.12 1017.13 1017.58 1016.87 1016.15 1015.61 1015.02 1014.65 1013.98 1013.54 1012.99 1012.52 1011.89 1010.89 1010.31 1010.03 1009.73 1009.54 1009.19 1008.06 1007.26 1006.34 1005.75 1005.64 1005.87 1006.28 1007.32 1008.24 1008.03 1007.10 1004.52 1002.60 1000.43 998.75 998.39 997.73 998.35 998.43 997.91 997.13
1018.01 1017.68 1016.56 1015.96 1015.92 1017.11 1018.29 1018.02 1016.87 1015.73 1015.40 1015.01 1014.56 1014.37 1013.96 1013.60 1013.05 1012.43 1011.49 1010.82 1010.30 1009.90 1009.58 1009.58 1009.44 1008.24 1007.48 1006.88 1006.43 1006.53 1006.61 1007.07 1007.44 1007.43 1006.48 1004.87 1001.84 999.41 998.26 998.28 998.81 998.88 998.39 998.11 997.43
1018.91 1018.42 1016.75 1016.25 1017.39 1018.72 1018.90 1018.14 1017.05 1015.74 1015.08 1014.74 1014.52 1014.40 1014.09 1013.88 1013.40 1012.72 1011.68 1011.03 1010.51 1010.52 1010.46 1010.38 1010.27 1009.71 1008.66 1007.46 1007.29 1007.36 1007.43 1007.56 1007.66 1007.27 1006.17 1005.40 1002.45 999.38 998.86 998.79 998.81 998.72 998.12 997.71 997.45
1019.87 1019.30 1017.19 1017.01 1018.70 1019.53 1018.99 1018.14 1017.16 1016.11 1015.45 1014.89 1014.59 1014.36 1014.19 1014.21 1014.02 1012.91 1011.85 1010.82 1010.72 1010.69 1010.70 1010.66 1010.63 1010.45 1009.16 1008.43 1007.89 1007.83 1007.82 1007.88 1007.78 1007.47 1005.99 1005.16 1001.14 999.41 998.70 998.44 998.71 998.86 998.31 998.07 997.83
1020.25 1020.05 1019.28 1019.22 1019.73 1019.87 1019.29 1018.10 1017.19 1016.12 1015.54 1015.13 1014.79 1014.38 1014.58 1014.23 1013.76 1012.93 1012.00 1011.43 1010.78 1010.87 1010.57 1010.85 1010.99 1010.64 1010.00 1009.18 1008.62 1008.47 1008.15 1008.03 1008.02 1007.41 1005.77 1003.08 1002.52 1000.87 999.67 999.32 999.16 998.86 998.58 998.17 997.90
1021.04 1021.50 1021.18 1020.78 1020.37 1020.20 1019.52 1018.33 1017.27 1016.14 1015.62 1015.28 1014.88 1014.65 1014.70 1014.04 1013.42 1012.67 1011.88 1011.38 1011.03 1010.58 1010.71 1010.80 1010.84 1010.70 1010.13 1009.48 1008.94 1008.57 1008.05 1007.61 1007.53 1006.69 1005.73 1002.99 1002.78 1002.37 1000.69 1000.21 999.72 999.25 998.57 997.92 997.84
1021.87 1022.01 1021.48 1021.16 1020.49 1019.75 1019.00 1018.08 1017.17 1016.48 1016.42 1015.44 1015.06 1014.49 1014.18 1013.72 1013.59 1012.41 1012.25 1011.67 1011.20 1010.79 1010.80 1010.89 1010.72 1010.52 1009.77 1008.95 1008.39 1007.82 1007.16 1006.86 1006.47 1005.70 1004.16 1003.86 1002.58 1002.86 1001.69 999.77 999.50 998.92 998.40 997.67 997.36
1021.61 1021.76 1021.81 1020.97 1020.56 1019.97 1018.87 1017.82 1017.19 1016.94 1015.81 1015.35 1014.69 1014.07 1013.31 1012.68 1012.26 1011.51 1011.12 1010.63 1010.87 1010.75 1010.97 1011.07 1010.91 1010.67 1009.50 1008.47 1007.92 1007.06 1005.59 1005.34 1004.51 1003.88 1003.25 1002.46 1002.35 1002.52 1001.56 1000.05 999.06 998.31 997.72 997.17 996.54
Wind_Speed
16 17 17 17 17 18 19 19 19 18 18 17 17 18 19 21 23 4 6 13 9 10 10 6 2 5 2 3 4 4 3 5 8 7 5 1 5 7 5 3 5 2 3 4 4
17 17 18 18 18 19 19 19 19 19 18 17 17 17 17 19 6 9 10 11 16 15 5 5 8 6 3 5 5 5 5 11 6 12 5 5 2 2 6 6 4 3 2 10 5
17 18 18 19 19 18 19 19 20 21 20 18 17 17 17 13 5 7 7 14 9 7 7 6 7 7 7 5 7 7 10 13 8 9 5 9 10 7 2 8 6 1 7 5 1
18 19 19 20 20 20 20 19 19 20 20 18 17 16 16 4 7 2 12 20 17 9 5 4 7 6 9 12 5 6 14 16 6 6 4 14 8 4 8 12 7 10 8 6 9
19 20 21 21 22 23 23 22 21 19 18 16 13 11 5 5 13 6 17 14 7 7 2 6 11 6 9 6 5 13 5 9 15 12 12 9 14 15 16 11 11 9 10 12 10
20 20 21 22 23 24 24 24 22 20 17 12 7 4 1 5 6 5 6 12 2 3 7 5 7 7 6 6 18 3 12 17 8 5 6 7 15 6 9 10 14 14 15 11 9
20 21 22 22 23 24 24 25 26 20 18 9 5 5 6 18 4 7 9 5 3 7 6 5 11 8 3 2 7 2 5 3 6 4 7 2 24 21 12 13 16 16 17 13 11
20 21 22 22 22 23 24 25 26 25 10 2 8 4 9 6 5 8 3 5 7 9 14 11 6 3 4 3 1 6 3 13 13 9 6 9 29 18 8 13 18 19 17 14 12
21 20 22 21 21 21 23 25 20 4 6 9 5 5 12 6 4 8 8 5 7 4 6 12 5 7 3 5 2 4 15 13 13 8 11 15 26 7 7 8 13 11 11 9 9
21 21 22 23 23 23 24 20 11 6 4 4 2 2 8 7 8 7 7 8 3 5 4 7 5 6 4 7 18 10 12 8 7 7 10 12 27 15 6 7 9 10 12 12 13
21 22 21 22 22 22 10 6 8 7 4 6 8 6 19 7 11 7 4 4 3 2 5 5 5 17 30 25 8 3 11 2 3 5 9 20 21 15 9 11 17 18 20 21 21
23 23 24 22 21 19 1 3 3 4 12 9 16 11 18 9 8 8 3 5 5 2 6 5 16 10 2 5 5 2 3 1 4 4 2 6 11 9 6 10 11 17 17 16 15
23 23 23 23 24 2 1 4 3 5 3 9 6 6 9 5 7 11 4 2 5 7 6 7 7 9 9 5 8 5 6 3 2 7 6 5 15 11 7 11 13 16 13 11 13
23 23 21 23 2 2 3 0 4 4 2 7 4 5 7 7 5 3 4 5 4 9 5 6 6 4 2 6 6 5 7 5 6 5 7 2 15 13 10 15 13 18 18 17 9
23 23 20 10 5 2 1 5 2 4 4 11 3 5 15 5 13 9 14 3 8 5 6 7 1 4 5 5 7 8 2 4 2 3 3 2 5 7 5 12 17 19 21 19 14
25 23 14 1 3 6 7 4 4 6 6 6 7 13 15 7 11 1 12 4 4 5 2 5 1 3 5 4 7 4 6 3 3 3 5 6 6 18 10 16 13 14 15 11 10
29 22 3 3 3 3 3 4 6 4 5 8 9 12 15 8 10 12 4 7 3 1 2 1 6 4 4 2 1 2 5 2 2 3 12 13 10 23 6 3 3 6 7 8 9
27 8 1 3 3 4 3 6 5 3 3 6 9 18 5 8 9 10 9 10 10 8 4 5 3 5 4 9 6 6 8 6 7 5 5 8 13 12 14 25 22 13 8 7 9
18 3 1 4 1 2 6 6 2 1 5 8 14 4 4 3 3 7 5 5 6 3 3 5 3 5 6 2 9 5 4 5 3 3 1 5 8 12 14 20 10 5 6 10 10
3 4 4 5 2 5 6 2 3 1 6 5 4 3 4 6 6 5 4 3 5 4 2 5 3 4 4 3 4 5 5 3 2 4 5 5 6 9 9 8 14 8 8 10 11
4 4 4 5 4 6 3 4 5 7 5 4 4 5 5 5 3 4 4 3 3 7 6 5 3 6 2 3 4 3 2 2 4 5 4 3 7 8 14 2 5 6 8 10 11
3 2 3 3 5 1 1 2 5 5 2 6 3 5 5 5 5 4 4 2 1 3 5 3 1 3 6 7 3 1 3 1 4 7 7 4 10 2 6 5 5 8 13 13 5
3 3 4 4 3 3 5 4 4 4 5 4 4 4 2 3 5 4 5 5 5 2 2 2 2 3 7 1 3 2 2 4 1 0 8 8 8 3 7 13 8 10 14 12 4
2 5 5 5 1 2 5 4 4 5 5 4 6 5 5 5 7 7 9 8 5 4 16 4 3 5 6 3 2 2 6 7 5 4 7 21 14 19 21 20 15 17 14 9 5
4 1 1 5 4 4 4 4 6 7 3 3 4 2 8 7 12 12 10 4 9 10 4 4 5 6 10 13 11 10 12 13 13 13 11 15 15 8 19 16 15 12 14 10 6
2 3 3 4 6 4 3 3 6 10 5 7 5 14 13 9 12 21 20 14 6 6 4 3 3 2 11 12 12 14 14 16 18 20 23 19 21 10 19 17 13 13 11 12 11
0 1 2 4 4 3 4 4 10 14 8 11 14 17 13 15 12 18 17 19 9 5 2 3 2 1 6 5 7 9 18 18 20 21 17 23 10 8 16 16 14 12 10 13 15
Wind_Direction
356 353 349 344 341 338 336 334 331 329 329 330 331 331 332 328 324 331 256 226 212 274 321 281 137 198 135 230 181 131 132 224 200 183 240 325 29 319 312 313 338 306 147 272 91
351 348 345 342 338 335 332 328 324 322 322 324 328 329 329 327 304 253 259 269 280 286 299 236 202 169 194 206 206 166 182 222 178 222 238 274 195 335 336 342 235 273 299 23 57
347 344 341 338 336 333 328 324 321 319 317 318 322 328 332 333 325 242 115 19 341 275 233 281 315 175 196 177 198 195 218 229 217 208 236 266 290 191 263 297 238 303 306 293 216
344 341 339 337 334 330 327 322 314 311 310 312 317 325 330 327 306 74 333 352 345 309 179 206 223 210 183 204 203 217 222 227 213 204 225 254 275 225 185 245 265 286 283 284 272
344 342 340 338 336 331 326 320 313 309 306 305 306 318 3 9 253 317 337 355 354 5 209 214 222 206 190 189 197 236 219 232 240 252 253 271 260 267 266 264 269 268 261 265 259
341 341 340 337 335 331 323 318 310 312 309 302 276 274 246 258 269 312 341 332 7 11 314 216 235 223 250 215 199 175 220 250 255 228 252 266 269 241 298 285 289 288 277 259 262
340 339 338 336 334 331 324 318 312 317 309 293 210 187 233 243 272 284 304 283 257 256 255 249 242 261 187 245 243 245 295 320 225 177 247 192 277 256 241 269 278 269 263 267 247
335 333 332 332 332 327 322 314 309 312 307 159 158 166 251 246 264 290 232 284 251 236 235 252 257 267 226 266 4 184 159 244 239 159 246 158 259 254 242 239 254 261 275 273 266
332 330 329 329 327 322 315 301 291 297 111 128 97 110 268 289 242 233 173 255 317 260 213 261 164 188 166 174 42 237 234 220 246 208 202 192 257 241 221 228 253 261 266 269 272
332 330 328 329 333 334 325 317 333 91 109 135 125 263 266 289 283 267 209 240 225 310 288 214 221 172 151 163 209 205 220 230 208 204 200 238 256 255 260 260 253 262 275 272 271
334 331 329 331 333 335 341 2 11 347 25 234 249 262 285 274 289 267 259 148 180 169 243 250 192 205 205 211 201 60 213 134 147 262 186 225 257 257 251 262 268 271 272 275 278
334 334 332 330 329 323 11 56 146 239 301 264 257 252 258 260 291 284 82 168 151 168 301 258 233 223 160 192 202 116 111 205 285 254 181 283 276 277 242 255 244 252 256 257 269
330 334 332 329 321 32 149 226 72 136 244 292 232 246 255 184 262 301 160 230 219 157 223 241 275 181 198 173 204 221 205 176 189 324 281 295 285 267 241 233 248 256 253 250 254
328 329 330 331 70 307 269 22 331 159 24 275 296 292 325 292 292 26 332 194 244 197 197 228 259 158 27 220 152 187 172 168 194 172 247 109 283 263 263 262 253 259 259 257 224
327 325 321 326 282 262 271 324 358 67 342 316 353 298 320 310 306 340 321 240 236 225 134 239 275 180 171 188 188 221 144 163 184 248 295 199 296 285 218 259 255 253 256 255 225
327 323 313 107 205 246 293 338 65 53 264 334 325 336 335 310 325 176 335 197 200 240 239 229 311 197 172 193 190 159 139 113 82 119 260 172 179 275 248 250 251 248 263 248 242
331 330 223 148 232 259 300 54 43 120 336 334 315 329 318 308 313 338 2 350 17 50 267 348 251 218 153 227 43 91 76 93 113 194 233 160 178 241 304 183 237 245 287 276 265
331 346 198 227 261 337 58 60 73 360 280 315 316 313 298 346 318 328 7 357 28 348 338 175 261 178 192 183 188 173 164 166 173 201 215 151 223 242 235 253 260 277 291 309 296
331 331 338 285 294 64 62 56 217 359 313 304 310 301 306 324 315 354 325 6 39 124 313 350 309 331 53 50 149 184 161 195 47 278 106 217 287 293 277 282 268 302 338 294 281
354 340 321 315 17 48 65 291 252 297 297 285 284 310 305 317 345 353 304 348 350 3 189 314 275 114 318 2 261 164 173 116 355 218 240 261 259 237 319 265 277 352 324 307 306
38 35 286 339 53 46 108 255 287 264 301 300 283 285 285 311 285 284 279 309 342 335 0 16 61 306 5 200 210 34 291 163 162 175 209 294 264 220 224 166 16 297 295 297 301
10 42 308 15 47 31 23 263 286 282 326 266 238 239 253 305 290 282 275 262 80 14 339 351 82 269 257 266 336 93 266 266 174 243 249 138 269 360 107 86 34 353 335 334 340
10 296 318 74 73 326 304 289 270 302 315 298 283 267 333 283 308 280 283 337 314 199 295 282 278 309 319 18 63 115 248 227 257 61 235 234 240 239 324 337 0 347 334 334 344
1 350 332 36 40 73 324 300 298 292 274 316 275 275 345 268 223 270 282 308 2 303 275 223 231 213 202 310 119 269 291 289 214 228 265 243 269 294 304 310 334 331 319 322 286
23 323 358 307 326 324 264 288 285 327 234 281 295 287 310 288 301 271 258 259 286 273 298 180 258 234 256 267 279 261 265 263 259 255 249 272 268 283 296 307 306 302 300 315 278
54 11 3 298 287 265 281 248 279 321 308 291 252 296 296 265 264 282 284 278 233 301 189 199 244 260 286 261 256 264 261 258 254 255 259 260 267 267 273 286 287 290 288 298 311
215 217 152 256 294 334 252 289 315 314 276 264 290 299 295 283 271 274 268 265 244 212 197 208 247 312 265 298 342 285 239 241 243 237 239 239 240 262 265 275 274 271 284 290 298